Regional Weather Roundup
Issued by NWS Sioux Falls, SD

Home | Current Version | Previous Version | Text Only | Print | Product List | Glossary On
Versions: 1 2 3 4 5 6 7 8 9 10 11 12 13 14 15 16 17 18 19 20 21 22 23 24 25 26 27 28 29 30 31 32 33 34 35 36 37 38 39 40 41 42 43 44 45 46 47 48 49 50
000
ASUS43 KFSD 080802
RWRFSD

WEATHER ROUNDUP FOR SE SOUTH DAKOTA/SW MINNESOTA/NW IOWA
NATIONAL WEATHER SERVICE SIOUX FALLS SD
200 AM CST MON FEB 08 2016

NOTE: "FAIR" INDICATES FEW OR NO CLOUDS BELOW 12,000 FEET WITH NO
SIGNIFICANT WEATHER AND OR OBSTRUCTIONS TO VISIBILITY.


SDZ038>040-050-052>070-080900-
SOUTHEAST SOUTH DAKOTA

CITY           SKY/WX    TMP DP  RH WIND       PRES   REMARKS
BROOKINGS      LGT SNOW  19  14  81 N26G36    29.94R WCI   1
CHAMBERLAIN    NOT AVBL
HURON          CLOUDY    27  18  69 N24G36    30.05S WCI  12
MADISON        CLOUDY    19  19 100 N30G41    29.97R WCI   0
MITCHELL       MIX PCPN  29  20  69 NW28G47   30.07R WCI  14
SIOUX FALLS    CLOUDY    23  15  71 N28G36    29.97S WCI   6
WINNER         FAIR      30  17  58 NW29G46   30.16S WCI  15
YANKTON        PTCLDY    28  18  64 NW31G44   30.03R WCI  12
$$

MNZ071-072-080-081-089-090-097-098-080900-
SOUTHWEST MINNESOTA

CITY           SKY/WX    TMP DP  RH WIND       PRES   REMARKS
FAIRMONT       CLOUDY   N/A N/A N/A NW32G41   29.81S VSB 1/2
JACKSON        CLOUDY    16  10  79 NW44G52   29.84F WCI  -8
LUVERNE          N/A     21  19  93 N30G44    29.94S WCI   3
MARSHALL       LGT SNOW  15  11  83 N35G46    29.92S VSB 3/4 WCI  -7
MONTEVIDEO     LGT SNOW  14  12  92 N28G41    29.96R WCI  -6
PIPESTONE      PTCLDY    19  10  68 N31G40    29.92S WCI   0
REDWOOD FALLS  LGT SNOW  13   9  84 NW28G38   29.90R FOG     WCI  -8
TRACY          LGT SNOW  16  12  86 NW28G43   29.91S VSB 1   WCI  -4
WINDOM         HVY SNOW  14  10  85 NW44G55   29.85S VSB<1/4 WCI -10
WORTHINGTON    CLOUDY   N/A N/A N/A N32G43    29.90R VSB 1
$$

IAZ001>003-012>014-020>022-031-032-NEZ013-014-SDZ071-080900-
NORTHWEST IOWA

CITY           SKY/WX    TMP DP  RH WIND       PRES   REMARKS
ESTHERVILLE    FOG       15  12  88 NW38G49   29.86S VSB<1/4 WCI  -7
SIOUX CITY     CLOUDY    29  19  66 N29G39    29.96F WCI  14
SPENCER        LGT SNOW  18  12  77 NW29G40   29.89F WCI  -1
STORM LAKE     FLURRIES  19  14  79 N33G39    29.90S WCI   0
$$

ABBREVIATIONS USED IN REMARKS
   TC - TEMPERATURE IN CELSIUS
  WCI - WIND CHILL INDEX
   HX - HEAT INDEX
  VSB - VISIBILITY




USA.gov is the U.S. government's official web portal to all federal, state and local government web resources and services.